SCP
-0 0 0 -0 -0 -0 0 0 -0 -0 -0 -0 -0 -0 -0 -0 -0 -0 -0 -0 -0 -0 -0 -0 0 -0 0 -0 -0 -0 -0 -0 -0 -0 0 -0 -0 -0 0 0 -0 -0 0
-0 0 0 -0 -0 -0 0 0 0 0 0 -0 -0 -0 -0 -0 -0 -0 -0 -0 -0 -0 -0 0 0 0 -0 0 -0 -0 -0 -0 -0 0 0 -0 -0 -0 -0 0 -0 0 -0
-0 -0 0 0 -0 -0 0 0 0 0 -0 -0 0 -0 -0 -0 -0 -0 -0 -0 -0 -0 -0 0 0 -0 -0 -0 -0 -0 -0 -0 0 -0 -0 -0 -0 0 -0 -0 -0 -0 -0
-0 0 0 -0 -0 -0 -0 0 0 0 -0 -0 0 0 -0 -0 -0 -0 -0 0 -0 -0 -0 0 0 -0 -0 -0 -0 -0 -0 0 -0 -0 -0 -0 0 0 -0 0 -0 0 0
-0 -0 -0 -0 0 -0 -0 0 0 -0 -0 -0 -0 -0 -0 -0 -0 -0 -0 0 -0 -0 -0 -0 0 -0 -0 -0 -0 -0 -0 -0 -0 -0 -0 -0 0 0 0 0 0 0 0
-0 0 0 0 -0 -0 -0 -0 -0 -0 0 -0 -0 -0 -0 -0 -0 0 0 -0 -0 0 -0 -0 -0 -0 -0 -0 -0 -0 0 0 -0 0 0 0 0 0 0 0 0 0 0
-0 -0 -0 0 -0 -0 0 -0 0 0 0 0 -0 -0 -0 -0 -0 0 0 -0 -0 -0 -0 -0 -0 0 0 0 0 0 0 0 0 0 0 0 0 0 0 0 0 0 0
-0 -0 -0 -0 -0 -0 -0 0 0 0 0 0 -0 -0 -0 -0 -0 0 -0 -0 -0 -0 0 -0 -0 0 0 0 0 0 0 0 0 0 0 0 0 0 0 0 0 0 0
0 0 -0 -0 0 0 -0 -0 0 0 0 0 0 -0 -0 -0 -0 0 0 0 -0 0 0 0 0 0 0 0 0 0 0 0 0 0 0 0 0 0 0 0 0 0 0
-0 0 0 -0 0 0 0 0 0 0 0 0 0 -0 -0 -0 -0 -0 0 0 0 0 0 0 0 0 0 0 0 0 0 0 0 0 0 0 0 0 0 0 0 0 0
0 0 0 0 -0 -0 0 0 0 0 0 0 0 0 0 0 -0 -0 0 0 0 0 0 0 0 0 0 0 0 0 0 0 0 0 0 0 0 0 0 0 0 0 0
-0 -0 -0 -0 -0 -0 -0 0 0 0 0 0 0 0 0 0 0 0 0 0 0 0 0 0 0 0 0 0 0 0 0 0 0 0 0 0 0 0 0 0 0 0 0
-0 -0 -0 -0 -0 -0 -0 -0 0 0 0 0 0 0 0 0 0 0 0 0 0 0 0 0 0 0 0 0 0 0 0 0 0 0 0 0 0 0 0 0 0 0 0
-0 -0 -0 -0 -0 -0 -0 -0 -0 -0 0 0 0 0 0 0 0 0 0 0 0 0 0 0 0 0 0 0 0 0 0 0 0 0 0 0 0 0 0 0 0 0 0
-0 -0 -0 -0 -0 -0 -0 -0 -0 -0 -0 -0 0 0 0 0 0 0 0 0 0 0 0 0 0 0 0 0 0 0 0 0 0 0 0 0 0 0 0 0 0 0 0
-0 -0 -0 -0 -0 -0 -0 -0 0 0 -0 0 0 0 0 0 0 0 0 0 0 0 0 0 0 0 0 0 0 0 0 0 0 0 0 0 0 0 0 0 0 0 0
-0 -0 -0 -0 -0 -0 -0 -0 -0 0 0 0 0 0 0 0 0 0 0 0 0 0 0 0 0 0 0 0 0 0 0 0 0 0 0 0 0 0 0 0 0 0 0
0 0 0 0 0 -0 0 0 0 0 0 0 0 0 0 0 0 0 0 0 0 0 0 0 0 0 0 0 0 0 0 0 0 0 0 0 0 0 0 0 0 0 0
0 0 0 0 0 0 0 0 0 0 0 0 0 0 0 0 0 0 0 0 0 0 0 0 0 0 0 0 0 0 0 0 0 0 0 0 0 0 0 0 0 0 0
0 0 0 0 0 0 0 0 0 0 0 0 0 0 0 0 0 0 0 0 0 0 0 0 0 0 0 0 0 0 0 0 0 0 0 0 0 0 0 0 0 0 0
0 0 0 0 0 0 0 0 0 0 0 0 0 0 0 0 0 0 0 0 0 0 0 0 0 0 0 0 0 0 0 0 0 0 0 0 0 0 0 0 0 0 0
0 0 0 0 0 0 0 0 0 0 0 0 0 0 0 0 0 0 0 0 0 0 0 0 0 0 0 0 0 0 0 0 0 0 0 0 0 0 0 0 0 0 0
0 0 0 0 0 0 0 0 0 0 0 0 0 0 0 0 0 0 0 0 0 0 0 0 0 0 0 0 0 0 0 0 0 0 0 0 0 0 0 0 0 0 0
0 0 0 0 0 0 0 0 0 0 0 0 0 0 0 0 0 0 0 0 0 0 0 0 0 0 0 0 0 0 0 0 0 0 0 0 0 0 0 0 0 0 0
0 0 0 0 0 0 0 0 0 0 0 0 0 0 0 0 0 0 0 0 0 0 0 0 0 0 0 0 0 0 0 0 0 0 0 0 0 0 0 0 0 0 0
0 0 0 0 0 0 0 0 0 0 0 0 0 0 0 0 0 0 0 0 0 0 0 0 0 0 0 0 0 0 0 0 0 0 0 0 0 0 0 0 0 0 0
Wind_Speed_500mb
25 23 27 27 25 25 21 17 17 20 24 28 27 26 24 23 21 19 17 15 26 25 25 27 27 25 25 26 25 22 21 23 23 25 27 28 24 22 21 19 27 24 24
24 24 24 26 24 23 19 14 12 15 20 24 25 23 22 19 17 17 13 17 24 28 23 24 25 25 24 26 25 24 23 26 28 28 32 28 21 21 22 21 24 27 29
24 22 21 23 24 22 16 11 10 11 13 19 21 21 22 23 20 17 17 17 29 28 25 24 20 22 21 25 26 26 28 32 29 32 31 21 17 17 21 23 28 23 24
25 23 20 22 25 18 13 9 8 10 11 8 15 17 19 24 24 23 18 22 25 24 22 22 24 19 21 22 22 23 26 27 26 28 20 18 16 18 19 18 16 17 22
29 25 23 22 21 12 8 6 8 12 13 10 5 16 15 22 25 22 23 21 25 19 18 19 21 19 18 19 19 20 21 20 19 18 16 16 14 15 15 13 11 10 15
28 26 25 27 22 12 6 5 7 16 19 15 8 11 17 20 22 22 19 21 25 20 17 16 18 15 15 16 16 15 15 15 18 13 15 15 13 11 11 12 6 6 12
27 25 24 26 20 15 10 6 4 13 23 20 11 8 6 15 21 18 21 18 22 20 17 13 14 12 11 11 11 10 11 10 11 9 10 12 8 10 8 8 5 5 7
24 25 22 23 21 18 11 8 5 5 14 19 18 12 10 8 14 16 16 15 16 16 15 10 11 9 7 6 7 5 4 5 7 6 6 7 7 5 5 6 4 2 3
24 24 23 22 22 20 16 12 9 9 13 16 15 19 15 11 16 16 16 15 14 16 14 12 10 9 8 6 4 2 1 2 2 3 3 3 3 3 2 2 7 6 4
25 24 24 24 24 23 20 16 14 11 16 22 18 14 18 16 12 15 17 17 16 15 15 14 14 13 11 10 8 7 5 6 5 7 6 6 5 6 4 3 7 11 9
29 27 26 26 26 26 25 22 19 16 15 21 25 18 21 20 18 19 20 19 17 18 18 18 18 17 16 15 14 13 11 11 12 12 12 12 10 10 8 7 7 12 14
28 27 26 26 27 28 28 27 25 23 20 18 21 25 29 26 21 19 18 21 21 21 22 22 21 21 20 21 21 20 19 18 18 18 17 16 15 15 14 12 12 15 19
16 21 24 24 24 27 31 31 31 30 28 25 23 24 27 30 30 28 30 26 26 26 26 26 27 27 27 27 27 27 26 25 24 24 23 21 21 20 19 17 16 18 22
21 17 20 24 27 27 28 32 34 35 33 32 29 27 27 29 33 32 32 33 31 32 30 31 32 32 33 33 33 33 33 32 31 31 29 28 27 25 23 23 21 21 24
25 22 23 24 24 26 30 32 34 36 37 37 37 36 34 33 33 35 36 36 34 34 35 35 36 37 38 39 39 39 40 40 38 38 36 34 33 31 29 28 27 25 26
23 23 25 28 28 30 30 31 33 36 36 41 42 41 42 40 39 38 37 38 40 39 40 40 40 41 43 45 44 45 46 45 45 45 44 41 37 36 34 33 32 32 30
28 27 29 30 32 34 33 34 35 35 36 40 41 43 45 46 47 45 44 43 43 43 44 46 45 45 46 47 49 50 50 51 52 51 49 48 45 43 41 39 37 36 36
39 38 38 34 36 38 39 38 39 39 36 39 41 41 44 46 48 51 53 50 47 47 48 51 50 52 51 50 52 52 53 53 57 56 55 54 53 51 48 46 44 42 41
55 49 46 43 39 39 42 46 46 45 44 42 44 46 47 47 48 50 51 53 52 53 53 53 55 56 57 56 56 55 57 59 60 60 62 60 60 57 56 53 50 50 47
43 45 42 40 35 35 39 44 49 50 49 49 49 50 49 52 53 53 54 54 53 55 57 59 57 57 59 56 54 60 62 64 65 66 66 62 64 62 59 60 57 57 54
55 49 41 37 33 36 35 39 41 44 47 51 52 52 50 50 54 59 60 60 61 61 59 59 60 61 61 63 60 65 63 66 66 68 67 65 66 63 63 66 64 64 61
59 59 56 51 45 42 43 41 43 45 50 49 51 51 50 53 56 60 61 62 65 65 65 65 66 66 68 65 64 38 37 42 49 48 45 49 54 58 63 67 68 69 67
58 58 62 59 53 51 48 49 53 57 61 61 62 57 55 54 54 55 57 62 67 70 68 67 70 74 74 67 69 47 24 24 35 40 39 41 39 40 40 41 55 65 68
49 49 53 55 54 54 54 58 60 62 65 63 61 60 57 57 54 54 55 56 58 63 67 65 69 73 74 76 65 79 75 64 37 39 39 38 40 50 55 57 56 56 61
42 40 39 43 47 51 57 58 59 62 62 56 56 60 61 61 61 56 53 51 53 57 58 59 61 67 70 74 75 69 80 76 70 72 66 61 60 74 73 71 71 66 66
39 42 45 47 49 53 56 57 58 58 57 57 56 56 56 57 57 57 56 55 54 55 58 58 61 64 67 71 72 72 72 60 59 65 70 73 84 82 87 87 83 77 77
Wind_Direction_500mb
170 165 161 160 156 152 147 140 140 149 151 147 146 149 148 146 140 134 141 140 115 116 109 103 109 104 95 92 94 94 104 110 107 106 98 89 84 80 75 72 75 67 66
170 165 167 164 161 154 152 146 148 151 163 168 169 168 165 165 168 155 154 138 127 115 103 102 93 95 94 90 90 89 101 108 110 104 94 61 73 74 68 74 79 77 71
167 164 166 169 167 162 161 160 157 151 161 169 179 186 188 180 178 170 158 143 130 130 133 119 113 104 92 91 94 93 99 101 106 100 84 75 57 61 72 82 98 95 73
164 169 164 173 169 169 166 176 173 159 159 150 178 182 184 171 169 179 175 152 137 139 126 110 107 107 91 91 97 96 93 93 90 82 75 73 61 59 72 98 106 81 59
163 165 161 166 169 180 188 208 182 156 134 162 198 161 161 154 160 160 169 153 141 152 134 112 107 104 92 94 97 96 91 91 89 77 68 74 69 58 69 103 104 72 48
169 169 167 167 179 191 219 233 206 161 153 179 199 169 173 157 162 155 154 152 153 157 142 123 111 109 101 96 96 92 88 87 88 78 71 63 76 65 76 92 106 59 37
173 176 177 177 186 191 195 220 240 182 175 183 206 191 182 177 167 165 167 164 160 169 158 134 126 122 113 102 100 93 82 79 92 80 74 67 68 86 95 115 95 37 39
184 180 186 192 196 200 211 210 196 228 202 192 199 204 215 204 183 177 175 175 169 167 178 160 148 147 145 130 120 106 79 57 66 61 61 71 49 75 96 171 213 276 38
185 189 190 198 210 216 218 213 217 197 218 228 210 203 218 229 216 194 193 191 186 184 187 190 189 191 194 189 187 170 248 330 9 343 1 29 357 360 50 199 204 231 258
191 196 201 204 212 222 229 237 230 215 207 217 229 204 216 237 243 230 209 208 203 206 209 208 215 222 229 234 234 240 259 289 292 296 307 290 301 306 299 264 219 221 239
198 198 205 213 218 221 224 229 237 242 236 220 223 220 238 231 231 239 233 227 221 224 227 227 230 237 244 252 256 260 263 269 275 277 277 282 285 287 286 267 237 216 235
209 210 213 216 219 225 230 232 232 237 240 242 236 230 223 235 252 244 237 233 233 234 237 242 244 249 254 259 263 264 265 268 271 273 275 276 279 277 277 270 248 228 232
205 215 223 225 229 231 231 233 236 236 236 238 239 242 245 234 234 237 236 239 241 240 243 248 252 253 254 258 264 267 268 270 272 274 274 275 274 273 271 268 258 243 231
218 212 217 223 228 232 238 240 241 241 242 242 241 242 243 249 253 252 245 244 243 248 250 251 254 255 257 259 260 264 268 270 276 276 274 273 272 271 269 268 260 251 241
229 226 229 232 234 236 240 242 243 246 248 248 246 244 246 249 252 253 252 254 256 255 253 253 255 258 260 261 262 264 265 268 272 274 274 270 269 269 268 265 262 252 241
246 242 240 241 243 244 245 248 249 249 251 248 249 252 251 249 250 252 255 256 257 256 257 258 260 262 262 264 264 265 268 269 271 271 273 272 267 266 266 264 262 254 241
261 258 252 251 247 248 252 253 255 257 253 252 252 251 249 251 253 253 255 257 259 261 259 259 259 261 263 268 269 268 269 269 269 271 272 272 271 267 265 263 261 258 249
262 264 263 256 253 251 253 256 255 258 257 256 254 252 253 253 253 253 253 255 259 264 263 263 263 266 268 269 270 270 272 270 270 270 270 269 269 268 265 262 262 262 254
258 260 261 256 256 257 254 254 257 261 261 259 256 251 250 252 253 254 256 256 257 262 264 264 264 266 268 271 274 275 274 272 270 271 269 270 269 266 267 265 263 263 259
247 252 256 254 253 252 252 253 255 257 261 261 262 259 255 253 255 255 256 258 258 259 262 263 265 269 272 271 273 276 276 275 274 272 272 271 270 269 265 263 260 259 259
247 241 241 250 252 253 254 254 259 265 267 265 266 266 265 261 257 257 258 258 258 259 263 266 267 266 267 273 275 275 278 280 276 274 275 271 269 267 263 261 259 258 258
242 245 245 244 248 252 257 262 266 270 270 270 268 267 266 263 260 259 261 262 262 262 261 263 265 266 269 267 266 272 285 284 278 282 274 268 266 265 260 258 257 257 258
245 245 245 247 246 246 254 257 262 265 267 267 265 268 272 270 267 264 263 262 261 265 267 267 266 266 267 270 269 251 264 260 281 282 275 265 265 266 268 262 257 257 257
246 245 242 243 245 246 249 255 261 266 265 267 266 267 267 269 268 266 265 265 264 264 268 269 270 271 269 265 262 267 261 253 268 282 270 266 265 264 264 265 261 259 258
246 241 240 241 244 249 256 262 264 262 262 264 261 260 260 265 267 269 270 269 265 263 265 267 268 267 269 268 266 262 271 267 258 254 268 266 266 271 270 264 259 262 258
240 247 251 256 259 259 259 261 261 263 262 258 258 261 264 267 268 266 264 263 264 264 265 265 268 268 268 270 269 265 255 256 261 251 253 261 266 269 273 274 268 263 259
Wind_Speed_850mb
25 23 27 27 25 25 21 17 17 20 24 28 27 26 24 23 21 19 17 15 26 25 25 27 27 25 25 26 25 22 21 23 23 25 27 28 24 22 21 19 27 24 24
24 24 24 26 24 23 19 14 12 15 20 24 25 23 22 19 17 17 13 17 24 28 23 24 25 25 24 26 25 24 23 26 28 28 32 28 21 21 22 21 24 27 29
24 22 21 23 24 22 16 11 10 11 13 19 21 21 22 23 20 17 17 17 29 28 25 24 20 22 21 25 26 26 28 32 29 32 31 21 17 17 21 23 28 23 24
25 23 20 22 25 18 13 9 8 10 11 8 15 17 19 24 24 23 18 22 25 24 22 22 24 19 21 22 22 23 26 27 26 28 20 18 16 18 19 18 16 17 22
29 25 23 22 21 12 8 6 8 12 13 10 5 16 15 22 25 22 23 21 25 19 18 19 21 19 18 19 19 20 21 20 19 18 16 16 14 15 15 13 11 10 15
28 26 25 27 22 12 6 5 7 16 19 15 8 11 17 20 22 22 19 21 25 20 17 16 18 15 15 16 16 15 15 15 18 13 15 15 13 11 11 12 6 6 12
27 25 24 26 20 15 10 6 4 13 23 20 11 8 6 15 21 18 21 18 22 20 17 13 14 12 11 11 11 10 11 10 11 9 10 12 8 10 8 8 5 5 7
24 25 22 23 21 18 11 8 5 5 14 19 18 12 10 8 14 16 16 15 16 16 15 10 11 9 7 6 7 5 4 5 7 6 6 7 7 5 5 6 4 2 3
24 24 23 22 22 20 16 12 9 9 13 16 15 19 15 11 16 16 16 15 14 16 14 12 10 9 8 6 4 2 1 2 2 3 3 3 3 3 2 2 7 6 4
25 24 24 24 24 23 20 16 14 11 16 22 18 14 18 16 12 15 17 17 16 15 15 14 14 13 11 10 8 7 5 6 5 7 6 6 5 6 4 3 7 11 9
29 27 26 26 26 26 25 22 19 16 15 21 25 18 21 20 18 19 20 19 17 18 18 18 18 17 16 15 14 13 11 11 12 12 12 12 10 10 8 7 7 12 14
28 27 26 26 27 28 28 27 25 23 20 18 21 25 29 26 21 19 18 21 21 21 22 22 21 21 20 21 21 20 19 18 18 18 17 16 15 15 14 12 12 15 19
16 21 24 24 24 27 31 31 31 30 28 25 23 24 27 30 30 28 30 26 26 26 26 26 27 27 27 27 27 27 26 25 24 24 23 21 21 20 19 17 16 18 22
21 17 20 24 27 27 28 32 34 35 33 32 29 27 27 29 33 32 32 33 31 32 30 31 32 32 33 33 33 33 33 32 31 31 29 28 27 25 23 23 21 21 24
25 22 23 24 24 26 30 32 34 36 37 37 37 36 34 33 33 35 36 36 34 34 35 35 36 37 38 39 39 39 40 40 38 38 36 34 33 31 29 28 27 25 26
23 23 25 28 28 30 30 31 33 36 36 41 42 41 42 40 39 38 37 38 40 39 40 40 40 41 43 45 44 45 46 45 45 45 44 41 37 36 34 33 32 32 30
28 27 29 30 32 34 33 34 35 35 36 40 41 43 45 46 47 45 44 43 43 43 44 46 45 45 46 47 49 50 50 51 52 51 49 48 45 43 41 39 37 36 36
39 38 38 34 36 38 39 38 39 39 36 39 41 41 44 46 48 51 53 50 47 47 48 51 50 52 51 50 52 52 53 53 57 56 55 54 53 51 48 46 44 42 41
55 49 46 43 39 39 42 46 46 45 44 42 44 46 47 47 48 50 51 53 52 53 53 53 55 56 57 56 56 55 57 59 60 60 62 60 60 57 56 53 50 50 47
43 45 42 40 35 35 39 44 49 50 49 49 49 50 49 52 53 53 54 54 53 55 57 59 57 57 59 56 54 60 62 64 65 66 66 62 64 62 59 60 57 57 54
55 49 41 37 33 36 35 39 41 44 47 51 52 52 50 50 54 59 60 60 61 61 59 59 60 61 61 63 60 65 63 66 66 68 67 65 66 63 63 66 64 64 61
59 59 56 51 45 42 43 41 43 45 50 49 51 51 50 53 56 60 61 62 65 65 65 65 66 66 68 65 64 38 37 42 49 48 45 49 54 58 63 67 68 69 67
58 58 62 59 53 51 48 49 53 57 61 61 62 57 55 54 54 55 57 62 67 70 68 67 70 74 74 67 69 47 24 24 35 40 39 41 39 40 40 41 55 65 68
49 49 53 55 54 54 54 58 60 62 65 63 61 60 57 57 54 54 55 56 58 63 67 65 69 73 74 76 65 79 75 64 37 39 39 38 40 50 55 57 56 56 61
42 40 39 43 47 51 57 58 59 62 62 56 56 60 61 61 61 56 53 51 53 57 58 59 61 67 70 74 75 69 80 76 70 72 66 61 60 74 73 71 71 66 66
39 42 45 47 49 53 56 57 58 58 57 57 56 56 56 57 57 57 56 55 54 55 58 58 61 64 67 71 72 72 72 60 59 65 70 73 84 82 87 87 83 77 77
Wind_Direction_850mb
170 165 161 160 156 152 147 140 140 149 151 147 146 149 148 146 140 134 141 140 115 116 109 103 109 104 95 92 94 94 104 110 107 106 98 89 84 80 75 72 75 67 66
170 165 167 164 161 154 152 146 148 151 163 168 169 168 165 165 168 155 154 138 127 115 103 102 93 95 94 90 90 89 101 108 110 104 94 61 73 74 68 74 79 77 71
167 164 166 169 167 162 161 160 157 151 161 169 179 186 188 180 178 170 158 143 130 130 133 119 113 104 92 91 94 93 99 101 106 100 84 75 57 61 72 82 98 95 73
164 169 164 173 169 169 166 176 173 159 159 150 178 182 184 171 169 179 175 152 137 139 126 110 107 107 91 91 97 96 93 93 90 82 75 73 61 59 72 98 106 81 59
163 165 161 166 169 180 188 208 182 156 134 162 198 161 161 154 160 160 169 153 141 152 134 112 107 104 92 94 97 96 91 91 89 77 68 74 69 58 69 103 104 72 48
169 169 167 167 179 191 219 233 206 161 153 179 199 169 173 157 162 155 154 152 153 157 142 123 111 109 101 96 96 92 88 87 88 78 71 63 76 65 76 92 106 59 37
173 176 177 177 186 191 195 220 240 182 175 183 206 191 182 177 167 165 167 164 160 169 158 134 126 122 113 102 100 93 82 79 92 80 74 67 68 86 95 115 95 37 39
184 180 186 192 196 200 211 210 196 228 202 192 199 204 215 204 183 177 175 175 169 167 178 160 148 147 145 130 120 106 79 57 66 61 61 71 49 75 96 171 213 276 38
185 189 190 198 210 216 218 213 217 197 218 228 210 203 218 229 216 194 193 191 186 184 187 190 189 191 194 189 187 170 248 330 9 343 1 29 357 360 50 199 204 231 258
191 196 201 204 212 222 229 237 230 215 207 217 229 204 216 237 243 230 209 208 203 206 209 208 215 222 229 234 234 240 259 289 292 296 307 290 301 306 299 264 219 221 239
198 198 205 213 218 221 224 229 237 242 236 220 223 220 238 231 231 239 233 227 221 224 227 227 230 237 244 252 256 260 263 269 275 277 277 282 285 287 286 267 237 216 235
209 210 213 216 219 225 230 232 232 237 240 242 236 230 223 235 252 244 237 233 233 234 237 242 244 249 254 259 263 264 265 268 271 273 275 276 279 277 277 270 248 228 232
205 215 223 225 229 231 231 233 236 236 236 238 239 242 245 234 234 237 236 239 241 240 243 248 252 253 254 258 264 267 268 270 272 274 274 275 274 273 271 268 258 243 231
218 212 217 223 228 232 238 240 241 241 242 242 241 242 243 249 253 252 245 244 243 248 250 251 254 255 257 259 260 264 268 270 276 276 274 273 272 271 269 268 260 251 241
229 226 229 232 234 236 240 242 243 246 248 248 246 244 246 249 252 253 252 254 256 255 253 253 255 258 260 261 262 264 265 268 272 274 274 270 269 269 268 265 262 252 241
246 242 240 241 243 244 245 248 249 249 251 248 249 252 251 249 250 252 255 256 257 256 257 258 260 262 262 264 264 265 268 269 271 271 273 272 267 266 266 264 262 254 241
261 258 252 251 247 248 252 253 255 257 253 252 252 251 249 251 253 253 255 257 259 261 259 259 259 261 263 268 269 268 269 269 269 271 272 272 271 267 265 263 261 258 249
262 264 263 256 253 251 253 256 255 258 257 256 254 252 253 253 253 253 253 255 259 264 263 263 263 266 268 269 270 270 272 270 270 270 270 269 269 268 265 262 262 262 254
258 260 261 256 256 257 254 254 257 261 261 259 256 251 250 252 253 254 256 256 257 262 264 264 264 266 268 271 274 275 274 272 270 271 269 270 269 266 267 265 263 263 259
247 252 256 254 253 252 252 253 255 257 261 261 262 259 255 253 255 255 256 258 258 259 262 263 265 269 272 271 273 276 276 275 274 272 272 271 270 269 265 263 260 259 259
247 241 241 250 252 253 254 254 259 265 267 265 266 266 265 261 257 257 258 258 258 259 263 266 267 266 267 273 275 275 278 280 276 274 275 271 269 267 263 261 259 258 258
242 245 245 244 248 252 257 262 266 270 270 270 268 267 266 263 260 259 261 262 262 262 261 263 265 266 269 267 266 272 285 284 278 282 274 268 266 265 260 258 257 257 258
245 245 245 247 246 246 254 257 262 265 267 267 265 268 272 270 267 264 263 262 261 265 267 267 266 266 267 270 269 251 264 260 281 282 275 265 265 266 268 262 257 257 257
246 245 242 243 245 246 249 255 261 266 265 267 266 267 267 269 268 266 265 265 264 264 268 269 270 271 269 265 262 267 261 253 268 282 270 266 265 264 264 265 261 259 258
246 241 240 241 244 249 256 262 264 262 262 264 261 260 260 265 267 269 270 269 265 263 265 267 268 267 269 268 266 262 271 267 258 254 268 266 266 271 270 264 259 262 258
240 247 251 256 259 259 259 261 261 263 262 258 258 261 264 267 268 266 264 263 264 264 265 265 268 268 268 270 269 265 255 256 261 251 253 261 266 269 273 274 268 263 259